Simultaneous Nadir Overpasses (SNOs) Predictions

Prediction of SNOs between GOES-14 and NOAA-20 Satellite Orbit:

Table of predicted SNOs for the next 14.0 days since TLE Epoch: 5/7/2022
Index Date Time (GOES-14) GOES-14 Lat,Lon NOAA-20 Lat,Lon Distance(km) Time Diff (sec)
1 05/09/2022 08:24:31 0.09,-104.43 0.25,-105.04 70.11 80
2 05/10/2022 08:08:26 0.10,-104.44 -0.77,-100.52 447.28 80
3 05/11/2022 20:30:24 -0.08,-104.58 -0.36,-105.83 143.33 80
4 05/12/2022 20:08:58 -0.09,-104.57 0.61,-101.29 372.52 80
5 05/14/2022 08:30:46 0.07,-104.43 0.53,-106.58 244.39 80
6 05/15/2022 08:14:41 0.08,-104.43 -0.44,-102.04 272.73 80
7 05/16/2022 20:36:38 -0.05,-104.59 -0.68,-107.36 315.90 80
8 05/17/2022 20:15:14 -0.06,-104.57 0.35,-102.83 199.55 80
9 05/19/2022 08:37:01 0.04,-104.40 0.84,-108.10 420.70 80
10 05/20/2022 08:20:56 0.05,-104.40 -0.14,-103.56 96.06 80
